ASP567 CYYC-CYBW

Flight info

Callsign ASP567
Flight time 0h 11m
Altitude 10000
Route SEKEM
Aircraft C25B/M-SDE2E3FGHRWXY/LB1

Departure

Time 2026-05-06 03:12
Airport Calgary International Airport (CYYC)

Arrival

Time 2026-05-06 03:23
Airport Calgary / Springbank Airport (CYBW)
Time Latitude Longitude Altitude Speed Heading
2026-05-06 03:01 51.10000 -114.00760 3544 ft 0 kts 136°
2026-05-06 03:08 51.09986 -114.00758 3544 ft 3 kts 233°
2026-05-06 03:09 51.09997 -114.00800 3544 ft 9 kts 311°
2026-05-06 03:09 51.10068 -114.00912 3541 ft 20 kts 315°
2026-05-06 03:09 51.10186 -114.01100 3541 ft 28 kts 314°
2026-05-06 03:09 51.10226 -114.01332 3541 ft 21 kts 229°
2026-05-06 03:10 51.10127 -114.01484 3545 ft 19 kts 226°
2026-05-06 03:10 51.10036 -114.01626 3548 ft 18 kts 216°
2026-05-06 03:10 51.09907 -114.01648 3546 ft 20 kts 184°
2026-05-06 03:10 51.09781 -114.01746 3546 ft 21 kts 210°
2026-05-06 03:11 51.09689 -114.01892 3545 ft 18 kts 271°
2026-05-06 03:11 51.09690 -114.02095 3545 ft 16 kts 275°
2026-05-06 03:11 51.09745 -114.02135 3545 ft 18 kts
2026-05-06 03:11 51.10211 -114.02136 3549 ft 121 kts 360°
2026-05-06 03:12 51.11277 -114.02155 4070 ft 173 kts
2026-05-06 03:12 51.12564 -114.02226 5178 ft 195 kts
2026-05-06 03:12 51.13967 -114.02355 6438 ft 207 kts 357°
2026-05-06 03:12 51.15523 -114.02491 6994 ft 241 kts 358°
2026-05-06 03:13 51.17196 -114.02582 6996 ft 242 kts 358°
2026-05-06 03:13 51.18892 -114.02685 7004 ft 240 kts 358°
2026-05-06 03:13 51.20416 -114.03550 6985 ft 239 kts 320°
2026-05-06 03:13 51.21290 -114.05757 6993 ft 237 kts 291°
2026-05-06 03:14 51.21980 -114.08123 6990 ft 235 kts 304°
2026-05-06 03:14 51.23061 -114.10078 6993 ft 235 kts 313°
2026-05-06 03:14 51.24174 -114.11989 6997 ft 235 kts 311°
2026-05-06 03:14 51.25217 -114.13994 6998 ft 235 kts 308°
2026-05-06 03:15 51.26240 -114.16033 6999 ft 235 kts 308°
2026-05-06 03:15 51.27279 -114.18069 7000 ft 236 kts 309°
2026-05-06 03:15 51.28315 -114.20104 7001 ft 235 kts 309°
2026-05-06 03:15 51.29337 -114.22099 7000 ft 229 kts 309°
2026-05-06 03:16 51.30213 -114.24167 6995 ft 219 kts 293°
2026-05-06 03:16 51.30592 -114.26423 6990 ft 202 kts 277°
2026-05-06 03:16 51.30601 -114.28584 6989 ft 189 kts 268°
2026-05-06 03:16 51.30617 -114.30613 6989 ft 182 kts 270°
2026-05-06 03:17 51.30619 -114.32603 6990 ft 177 kts 269°
2026-05-06 03:17 51.30545 -114.34528 6985 ft 171 kts 254°
2026-05-06 03:17 51.30012 -114.36165 6987 ft 160 kts 232°
2026-05-06 03:17 51.29213 -114.37276 6984 ft 148 kts 207°
2026-05-06 03:18 51.28273 -114.37840 6987 ft 142 kts 189°
2026-05-06 03:18 51.27307 -114.37874 6984 ft 137 kts 177°
2026-05-06 03:18 51.26331 -114.37867 6856 ft 144 kts 180°
2026-05-06 03:18 51.25321 -114.37885 6673 ft 144 kts 179°
2026-05-06 03:19 51.24344 -114.37888 6484 ft 136 kts 179°
2026-05-06 03:19 51.23418 -114.37883 6304 ft 130 kts 178°
2026-05-06 03:19 51.22532 -114.37890 6132 ft 125 kts 179°
2026-05-06 03:19 51.21668 -114.37874 5974 ft 121 kts 178°
2026-05-06 03:20 51.20077 -114.37889 5677 ft 112 kts 177°
2026-05-06 03:20 51.19303 -114.37881 5526 ft 110 kts 176°
2026-05-06 03:20 51.18542 -114.37876 5366 ft 111 kts 177°
2026-05-06 03:21 51.17766 -114.37881 5215 ft 112 kts 177°
2026-05-06 03:21 51.16989 -114.37871 5077 ft 112 kts 176°
2026-05-06 03:21 51.16212 -114.37866 4947 ft 112 kts 177°
2026-05-06 03:21 51.15438 -114.37888 4808 ft 111 kts 178°
2026-05-06 03:22 51.14664 -114.37894 4656 ft 112 kts 176°
2026-05-06 03:22 51.13886 -114.37872 4496 ft 112 kts 177°
2026-05-06 03:22 51.13103 -114.37877 4340 ft 112 kts 178°
2026-05-06 03:22 51.12324 -114.37883 4206 ft 111 kts 177°
2026-05-06 03:23 51.11544 -114.37877 4030 ft 112 kts 178°
2026-05-06 03:23 51.10805 -114.37871 3939 ft 96 kts 179°
2026-05-06 03:23 51.10286 -114.37875 3940 ft 55 kts 180°
2026-05-06 03:23 51.09991 -114.37874 3938 ft 31 kts 180°
2026-05-06 03:24 51.09885 -114.37871 3937 ft 9 kts 168°
2026-05-06 03:24 51.09853 -114.37787 3938 ft 10 kts 89°
2026-05-06 03:24 51.09854 -114.37670 3938 ft 11 kts 90°
2026-05-06 03:24 51.09883 -114.37603 3938 ft 8 kts 11°
2026-05-06 03:25 51.09945 -114.37603 3938 ft 10 kts
2026-05-06 03:25 51.10021 -114.37603 3939 ft 12 kts
2026-05-06 03:25 51.10111 -114.37602 3939 ft 14 kts 360°
2026-05-06 03:25 51.10211 -114.37602 3939 ft 15 kts
2026-05-06 03:26 51.10316 -114.37601 3939 ft 10 kts
2026-05-06 03:26 51.10328 -114.37531 3939 ft 7 kts 143°
2026-05-06 03:26 51.10304 -114.37525 3939 ft 0 kts 178°